H07 EFUT-EFPR

Flight info

Callsign H07
Flight time 0h 18m
Altitude 2000
Route LINJA KOTKA
Aircraft H500/L-S/C

Departure

Time 2026-04-24 19:15
Airport Utti Air Base (EFUT)

Arrival

Time 2026-04-24 19:34
Airport Helsinki East-Redstone Aerodrome (EFPR)
Time Latitude Longitude Altitude Speed Heading
2026-04-24 19:10 60.89261 26.93683 334 ft 0 kts 86°
2026-04-24 19:14 60.89259 26.93702 337 ft 4 kts 83°
2026-04-24 19:14 60.89285 26.93634 416 ft 23 kts 295°
2026-04-24 19:15 60.89265 26.92872 670 ft 55 kts 262°
2026-04-24 19:15 60.89238 26.91656 723 ft 106 kts 263°
2026-04-24 19:15 60.89106 26.90048 918 ft 117 kts 261°
2026-04-24 19:15 60.88915 26.88428 1163 ft 119 kts 254°
2026-04-24 19:16 60.88294 26.84578 1252 ft 160 kts 249°
2026-04-24 19:16 60.87819 26.82499 1394 ft 156 kts 237°
2026-04-24 19:16 60.87165 26.80594 1101 ft 173 kts 240°
2026-04-24 19:17 60.86526 26.78533 1106 ft 170 kts 240°
2026-04-24 19:17 60.85846 26.76530 990 ft 173 kts 237°
2026-04-24 19:17 60.85253 26.74455 1230 ft 156 kts 246°
2026-04-24 19:17 60.84842 26.72586 1746 ft 142 kts 255°
2026-04-24 19:18 60.84576 26.70516 1781 ft 157 kts 263°
2026-04-24 19:18 60.84295 26.68154 1259 ft 183 kts 251°
2026-04-24 19:18 60.83615 26.66003 1232 ft 170 kts 237°
2026-04-24 19:18 60.82902 26.64183 1504 ft 158 kts 231°
2026-04-24 19:19 60.82039 26.62546 1177 ft 174 kts 220°
2026-04-24 19:19 60.81305 26.61702 1521 ft 68 kts 209°
2026-04-24 19:19 60.80958 26.61409 1287 ft 53 kts 214°
2026-04-24 19:19 60.80604 26.60968 1037 ft 71 kts 229°
2026-04-24 19:20 60.80384 26.60269 742 ft 39 kts 261°
2026-04-24 19:20 60.80351 26.59885 532 ft 19 kts 297°
2026-04-24 19:20 60.80406 26.59598 352 ft 22 kts 311°
2026-04-24 19:20 60.80453 26.59375 207 ft 13 kts 307°
2026-04-24 19:21 60.80467 26.59354 173 ft 0 kts 295°
2026-04-24 19:23 60.80476 26.59355 249 ft 6 kts 291°
2026-04-24 19:23 60.80505 26.59296 385 ft 10 kts 243°
2026-04-24 19:24 60.80238 26.59350 491 ft 79 kts 185°
2026-04-24 19:24 60.79523 26.59141 598 ft 121 kts 195°
2026-04-24 19:24 60.78632 26.58671 657 ft 138 kts 198°
2026-04-24 19:24 60.77705 26.58003 656 ft 148 kts 205°
2026-04-24 19:25 60.76734 26.57035 495 ft 156 kts 206°
2026-04-24 19:25 60.75697 26.56412 492 ft 152 kts 191°
2026-04-24 19:25 60.74654 26.56116 467 ft 153 kts 183°
2026-04-24 19:25 60.74172 26.56650 201 ft 82 kts 88°
2026-04-24 19:26 60.74190 26.56683 125 ft 0 kts 133°
2026-04-24 19:26 60.74190 26.56684 125 ft 0 kts 233°
2026-04-24 19:29 60.74198 26.56625 351 ft 16 kts 98°
2026-04-24 19:29 60.73968 26.56667 555 ft 75 kts 189°
2026-04-24 19:29 60.73228 26.56638 518 ft 128 kts 179°
2026-04-24 19:30 60.72282 26.56850 641 ft 137 kts 173°
2026-04-24 19:30 60.71347 26.57219 806 ft 140 kts 169°
2026-04-24 19:30 60.70309 26.57633 663 ft 155 kts 169°
2026-04-24 19:30 60.69252 26.57952 603 ft 157 kts 175°
2026-04-24 19:31 60.68150 26.58217 477 ft 160 kts 170°
2026-04-24 19:31 60.67056 26.58612 407 ft 156 kts 173°
2026-04-24 19:31 60.65996 26.59002 314 ft 159 kts 169°
2026-04-24 19:31 60.64906 26.59411 256 ft 153 kts 178°
2026-04-24 19:32 60.63833 26.59425 248 ft 152 kts 178°
2026-04-24 19:32 60.62802 26.59423 332 ft 147 kts 182°
2026-04-24 19:32 60.61765 26.59323 374 ft 149 kts 183°
2026-04-24 19:32 60.60712 26.59202 234 ft 158 kts 186°
2026-04-24 19:33 60.59627 26.59009 162 ft 157 kts 188°
2026-04-24 19:33 60.58538 26.58620 121 ft 153 kts 192°
2026-04-24 19:33 60.57521 26.58109 166 ft 150 kts 195°
2026-04-24 19:33 60.56544 26.57610 235 ft 120 kts 191°
2026-04-24 19:34 60.56094 26.57435 527 ft 37 kts 198°
2026-04-24 19:34 60.55866 26.57103 352 ft 48 kts 263°
2026-04-24 19:34 60.55862 26.56574 281 ft 17 kts 280°
2026-04-24 19:34 60.55858 26.56403 86 ft 6 kts 282°
2026-04-24 19:35 60.55853 26.56377 75 ft 2 kts 266°
2026-04-24 19:35 60.55853 26.56370 72 ft 0 kts 264°
2026-04-24 19:35 60.55850 26.56338 107 ft 8 kts 208°
2026-04-24 19:35 60.55691 26.56206 258 ft 75 kts 202°
2026-04-24 19:36 60.54967 26.55526 209 ft 136 kts 191°
2026-04-24 19:36 60.53964 26.55357 282 ft 153 kts 175°
2026-04-24 19:36 60.52941 26.56240 254 ft 161 kts 148°
2026-04-24 19:36 60.51995 26.57329 537 ft 153 kts 145°
2026-04-24 19:37 60.51056 26.58436 685 ft 157 kts 151°
2026-04-24 19:37 60.49972 26.58867 584 ft 163 kts 169°
2026-04-24 19:37 60.48940 26.59091 512 ft 129 kts 185°
2026-04-24 19:37 60.48139 26.59223 394 ft 88 kts 162°
2026-04-24 19:38 60.47756 26.59484 186 ft 33 kts 148°
2026-04-24 19:38 60.47836 26.59556 163 ft 40 kts 332°
2026-04-24 19:38 60.48010 26.59589 103 ft 8 kts 266°
2026-04-24 19:38 60.48033 26.59560 87 ft 3 kts 258°
2026-04-24 19:39 60.48026 26.59515 81 ft 3 kts 324°
2026-04-24 19:39 60.48030 26.59506 78 ft 0 kts 343°